Weather History for Burns, OR

Change the Weather History Date:

Saturday, November 3, 2012

  Actual Average Record
Temperature  
Mean Temperature 48 °F 38 °F  
Max Temperature 64 °F 52 °F 70 °F (1949)
Min Temperature 31 °F 25 °F 2 °F (1995)
Degree Days  
Heating Degree Days 17 27  
Month to date heating degree days 68 79  
Since 1 July heating degree days 893 1129  
Cooling Degree Days 0 0  
Month to date cooling degree days 0 0  
Year to date cooling degree days 309 215  
Moisture  
Dew Point 33 °F    
Average Humidity 59    
Maximum Humidity 85    
Minimum Humidity 33    
Precipitation  
Precipitation 0.00 in 0.03 in 0.85 in (1944)
Month to date precipitation T 0.10  
Year to date precipitation 7.20 8.30  
Sea Level Pressure  
Sea Level Pressure 30.19 in    
Wind  
Wind Speed 3 mph (West)    
Max Wind Speed 12 mph    
Max Gust Speed 13 mph    
Visibility 10 miles    
Events      
T = Trace of Precipitation, MM = Missing Value Source: NWS Daily Summary

Daily Weather History Graph

Daily Weather History Graph

Search for Another Location

Airport:

Trip Planner

Search our weather history database for the weather conditions in past years. The results will help you decide how hot, cold, wet, or windy it might be!

Date:

Astronomy

Nov. 03, 2012 Rise Set
Actual Time 7:34 AM PDT 5:43 PM PDT
Civil Twilight 7:04 AM PDT 6:13 PM PDT
Nautical Twilight 6:30 AM PDT 6:47 PM PDT
Astronomical Twilight 5:57 AM PDT 7:20 PM PDT
Moon 9:26 PM PDT (11/3) 11:45 AM PDT (11/3)
Length of Visible Light 11h 08m
Length of Day
10h 08m
Waning Gibbous, 79% of the Moon is Illuminated
Nov 3
Waning Gibbous
Nov 6
Last Quarter
Nov 13
New
Nov 20
First Quarter
Nov 28
Full

Hourly Weather History & Observations

Time (PDT) Temp. Windchill Dew Point Humidity Pressure Visibility Wind Dir Wind Speed Gust Speed Precip Events Conditions
12:53 AM 35.1 °F 32.2 °F 28.9 °F 78% 30.12 in 7.0 mi NW 3.5 mph - N/A   Scattered Clouds
1:53 AM 30.9 °F - 27.0 °F 85% 30.13 in 10.0 mi Calm Calm - N/A   Partly Cloudy
2:53 AM 34.0 °F - 28.9 °F 82% 30.12 in 10.0 mi Calm Calm - N/A   Mostly Cloudy
3:53 AM 37.0 °F - 32.0 °F 82% 30.12 in 10.0 mi Calm Calm - N/A   Overcast
4:53 AM 37.9 °F 35.5 °F 32.0 °F 79% 30.13 in 10.0 mi West 3.5 mph - N/A   Mostly Cloudy
5:53 AM 41.0 °F - 32.0 °F 70% 30.16 in 10.0 mi Calm Calm - N/A   Overcast
6:53 AM 41.0 °F 39.0 °F 33.1 °F 73% 30.17 in 10.0 mi WNW 3.5 mph - N/A   Overcast
7:53 AM 37.0 °F 34.5 °F 32.0 °F 82% 30.20 in 10.0 mi SW 3.5 mph - N/A   Mostly Cloudy
8:53 AM 41.0 °F - 33.1 °F 73% 30.22 in 10.0 mi Calm Calm - N/A   Overcast
9:53 AM 48.0 °F - 30.9 °F 52% 30.22 in 10.0 mi Calm Calm - N/A   Overcast
10:53 AM 52.0 °F - 27.0 °F 38% 30.22 in 10.0 mi ESE 3.5 mph - N/A   Overcast
11:53 AM 57.0 °F - 28.9 °F 34% 30.21 in 10.0 mi Calm Calm - N/A   Mostly Cloudy
12:53 PM 57.0 °F - 33.1 °F 40% 30.19 in 10.0 mi Calm Calm - N/A   Overcast
1:53 PM 60.1 °F - 35.1 °F 39% 30.19 in 10.0 mi East 3.5 mph - N/A   Scattered Clouds
2:53 PM 62.1 °F - 36.0 °F 38% 30.16 in 10.0 mi East 4.6 mph - N/A   Clear
3:53 PM 61.0 °F - 37.0 °F 41% 30.17 in 10.0 mi West 9.2 mph - N/A   Clear
4:53 PM 57.9 °F - 37.9 °F 47% 30.18 in 10.0 mi WSW 4.6 mph - N/A   Clear
5:53 PM 53.1 °F - 37.9 °F 57% 30.19 in 10.0 mi Calm Calm - N/A   Partly Cloudy
6:53 PM 48.0 °F - 37.0 °F 66% 30.23 in 10.0 mi SSE 5.8 mph - N/A   Clear
7:53 PM 42.1 °F 39.2 °F 35.1 °F 76% 30.27 in 9.0 mi NW 4.6 mph - N/A   Partly Cloudy
8:53 PM 42.1 °F 39.2 °F 34.0 °F 73% 30.25 in 10.0 mi North 4.6 mph - N/A   Clear
9:53 PM 39.0 °F 34.0 °F 34.0 °F 82% 30.27 in 10.0 mi West 6.9 mph - N/A   Clear
10:53 PM 39.0 °F - 34.0 °F 82% 30.27 in 10.0 mi Calm Calm - N/A   Clear
11:53 PM 43.0 °F 37.7 °F 35.1 °F 74% 30.26 in 10.0 mi West 9.2 mph - N/A   Mostly Cloudy